Gage, OK

6:33 PM CDT on July 24, 2017 (GMT -0500)
Gage

Weather History for KGAG - October, 2013

Change the Weather History Date:

Thursday, October 31, 2013

  Actual Average Record
Temperature  
Mean Temperature 54 °F -  
Max Temperature 66 °F 65 °F 90 °F (2016)
Min Temperature 39 °F 38 °F 10 °F (1993)
Degree Days  
Heating Degree Days 11    
Growing Degree Days 4 (Base 50)    
Moisture  
Dew Point 44 °F    
Average Humidity 81    
Maximum Humidity 100    
Minimum Humidity 28    
Precipitation  
Precipitation 0.00 in - - ()
Sea Level Pressure  
Sea Level Pressure 29.71 in    
Wind  
Wind Speed 11 mph (NNW)    
Max Wind Speed 24 mph    
Max Gust Speed 34 mph    
Visibility 7 miles    
Events Fog , Rain    
Averages and records for this station are not official NWS values.
T = Trace of Precipitation, MM = Missing Value Source: NWS Daily Summary

Daily Weather History Graph

Daily Weather History Graph

Search for Another Location

Airport or City:

Trip Planner

Search our weather history database for the weather conditions in past years. The results will help you decide how hot, cold, wet, or windy it might be!

Date:

Astronomy

Oct. 31, 2013 Rise Set
Actual Time 8:01 AM CDT 6:43 PM CDT
Civil Twilight 7:34 AM CDT 7:10 PM CDT
Nautical Twilight 7:04 AM CDT 7:40 PM CDT
Astronomical Twilight 6:34 AM CDT 8:10 PM CDT
Moon 4:57 AM CDT (10/31) 4:58 PM CDT (10/31)
Length of Visible Light 11h 35m
Length of Day
10h 42m
Waning Crescent, 10% of the Moon is Illuminated
Oct 31
Waning Crescent
Nov 3
New
Nov 9
First Quarter
Nov 17
Full
Nov 25
Last Quarter

Hourly Weather History & Observations

Time (CDT) Temp. Windchill Dew Point Humidity Pressure Visibility Wind Dir Wind Speed Gust Speed Precip Events Conditions
12:13 AM 51.8 °F - 51.8 °F 100% 29.70 in 7.0 mi ENE 9.2 mph - 0.00 in Rain Light Rain
12:25 AM 51.8 °F - 51.8 °F 100% 29.69 in 8.0 mi ENE 9.2 mph - 0.00 in Rain Light Rain
12:53 AM 53.1 °F - 52.0 °F 96% 29.63 in 7.0 mi NE 10.4 mph - 0.00 in   Overcast
1:53 AM 51.1 °F - 51.1 °F 100% 29.62 in 7.0 mi ENE 10.4 mph - N/A   Overcast
2:11 AM 51.8 °F - 51.8 °F 100% 29.65 in 1.8 mi ENE 9.2 mph - N/A   Overcast
2:42 AM 51.8 °F - 51.8 °F 100% 29.64 in 3.0 mi East 9.2 mph - N/A   Overcast
2:53 AM 52.0 °F - 52.0 °F 100% 29.59 in 3.0 mi ESE 5.8 mph - N/A   Overcast
3:53 AM 52.0 °F - 52.0 °F 100% 29.60 in 4.0 mi North 9.2 mph - N/A   Overcast
4:14 AM 51.8 °F - 50.0 °F 94% 29.65 in 1.5 mi North 12.7 mph - N/A   Overcast
4:24 AM 50.0 °F - 50.0 °F 100% 29.65 in 0.5 mi North 11.5 mph - N/A Fog Fog
4:53 AM 48.0 °F - 48.0 °F 100% 29.60 in 0.2 mi NNE 12.7 mph - N/A Fog Fog
5:25 AM 46.4 °F 42.4 °F 46.4 °F 100% 29.65 in 1.0 mi North 8.1 mph - N/A   Mist
5:53 AM 46.9 °F - 46.0 °F 97% 29.65 in 1.8 mi NNW 9.2 mph - 0.00 in Rain Light Rain
6:00 AM 46.4 °F 41.5 °F 46.4 °F 100% 29.68 in 2.5 mi NNW 10.4 mph - 0.00 in Rain Light Rain
6:08 AM 46.4 °F 42.4 °F 46.4 °F 100% 29.68 in 3.0 mi NNW 8.1 mph - 0.00 in Rain Light Rain
6:15 AM 46.4 °F 42.9 °F 46.4 °F 100% 29.68 in 3.0 mi NNW 6.9 mph - 0.00 in   Overcast
6:53 AM 46.0 °F 42.5 °F 46.0 °F 100% 29.65 in 7.0 mi North 6.9 mph - 0.00 in   Overcast
7:53 AM 46.0 °F 39.0 °F 45.0 °F 96% 29.70 in 4.0 mi NW 17.3 mph 29.9 mph 0.00 in Rain Light Rain
8:15 AM 46.4 °F 38.1 °F 44.6 °F 93% 29.73 in 5.0 mi NNW 24.2 mph 34.5 mph 0.00 in Rain Light Rain
8:28 AM 46.4 °F 38.5 °F 42.8 °F 87% 29.74 in 9.0 mi North 21.9 mph 33.4 mph 0.00 in Rain Light Rain
8:53 AM 46.0 °F 38.8 °F 43.0 °F 89% 29.74 in 10.0 mi North 18.4 mph - 0.00 in Rain Light Rain
9:53 AM 50.0 °F - 44.1 °F 80% 29.78 in 10.0 mi NNW 20.7 mph 28.8 mph 0.00 in   Scattered Clouds
10:53 AM 54.0 °F - 44.1 °F 69% 29.80 in 10.0 mi NW 16.1 mph 23.0 mph N/A   Mostly Cloudy
11:53 AM 57.9 °F - 44.1 °F 60% 29.80 in 10.0 mi WNW 13.8 mph - N/A   Clear
12:53 PM 61.0 °F - 37.9 °F 42% 29.80 in 10.0 mi NW 24.2 mph 31.1 mph N/A   Clear
1:53 PM 63.0 °F - 36.0 °F 37% 29.78 in 10.0 mi WNW 24.2 mph 31.1 mph N/A   Clear
2:53 PM 64.9 °F - 35.1 °F 33% 29.75 in 10.0 mi NW 21.9 mph 31.1 mph N/A   Clear
3:53 PM 66.0 °F - 32.0 °F 28% 29.75 in 10.0 mi NW 24.2 mph 28.8 mph N/A   Clear
4:53 PM 64.9 °F - 32.0 °F 29% 29.74 in 10.0 mi NW 16.1 mph - N/A   Clear
5:53 PM 63.0 °F - 30.9 °F 30% 29.75 in 10.0 mi NNW 12.7 mph - N/A   Clear
6:53 PM 54.0 °F - 35.1 °F 49% 29.78 in 10.0 mi West 3.5 mph - N/A   Clear
7:53 PM 46.0 °F 42.5 °F 37.9 °F 73% 29.81 in 10.0 mi SSW 6.9 mph - N/A   Clear
8:53 PM 45.0 °F 41.8 °F 37.9 °F 76% 29.82 in 10.0 mi South 5.8 mph - N/A   Clear
9:53 PM 44.1 °F 41.5 °F 37.0 °F 76% 29.82 in 10.0 mi SSW 4.6 mph - N/A   Clear
10:53 PM 42.1 °F 37.1 °F 37.0 °F 82% 29.81 in 10.0 mi South 8.1 mph - N/A   Clear
11:53 PM 39.9 °F 37.8 °F 36.0 °F 86% 29.82 in 10.0 mi North 3.5 mph - N/A   Clear